Time,TemperatureF,DewpointF,PressureIn,WindDirection,WindDirectionDegrees,WindSpeedMPH,WindSpeedGustMPH,Humidity,HourlyPrecipIn,Conditions,Clouds,dailyrainin,SoftwareType,DateUTC
2013-06-23 00:00:00,62.2,61.0,29.94,WSW,257,2.0,3.0,96,0.00,,BKN250,0.00,VWS V14.01,2013-06-23 05:00:00,
2013-06-23 00:05:00,62.3,61.2,29.94,WSW,258,0.0,3.0,96,0.00,,OVC250,0.00,VWS V14.01,2013-06-23 05:05:00,
2013-06-23 00:10:00,62.5,61.3,29.94,SW,232,0.0,0.0,96,0.00,,OVC250,0.00,VWS V14.01,2013-06-23 05:10:00,
2013-06-23 00:15:00,62.9,61.8,29.94,West,269,0.0,0.0,96,0.00,,OVC250,0.00,VWS V14.01,2013-06-23 05:15:00,
2013-06-23 00:20:00,63.5,62.6,29.94,West,263,1.0,5.0,97,0.00,,OVC250,0.00,VWS V14.01,2013-06-23 05:20:00,
2013-06-23 00:25:00,64.0,63.1,29.94,West,260,0.0,1.0,97,0.00,,OVC250,0.00,VWS V14.01,2013-06-23 05:25:00,
2013-06-23 00:30:00,64.4,63.2,29.94,West,260,0.0,0.0,96,0.00,,OVC250,0.00,VWS V14.01,2013-06-23 05:30:00,
2013-06-23 00:35:00,64.8,63.6,29.94,West,260,0.0,0.0,96,0.00,,FEW250,0.00,VWS V14.01,2013-06-23 05:35:00,
2013-06-23 00:36:00,64.9,63.7,29.94,West,260,0.0,0.0,96,0.00,,OVC250,0.00,VWS V14.01,2013-06-23 05:36:00,
2013-06-23 00:40:00,65.1,63.6,29.93,West,260,0.0,0.0,95,0.00,,FEW250,0.00,VWS V14.01,2013-06-23 05:40:00,
2013-06-23 00:41:00,65.2,63.7,29.93,West,261,0.0,0.0,95,0.00,,OVC250,0.00,VWS V14.01,2013-06-23 05:41:00,
2013-06-23 00:45:00,65.4,63.9,29.93,West,260,0.0,0.0,95,0.00,,FEW250,0.00,VWS V14.01,2013-06-23 05:45:00,
2013-06-23 00:46:00,65.4,63.9,29.93,West,261,0.0,0.0,95,0.00,,OVC250,0.00,VWS V14.01,2013-06-23 05:46:00,
2013-06-23 00:50:00,65.4,63.6,29.92,West,261,0.0,0.0,94,0.00,,FEW250,0.00,VWS V14.01,2013-06-23 05:50:00,
2013-06-23 00:51:00,65.4,63.6,29.92,West,260,0.0,0.0,94,0.00,,OVC250,0.00,VWS V14.01,2013-06-23 05:51:00,
2013-06-23 00:55:00,65.4,63.6,29.92,West,260,0.0,0.0,94,0.00,,FEW250,0.00,VWS V14.01,2013-06-23 05:55:00,
2013-06-23 00:56:00,65.4,63.6,29.92,West,260,0.0,0.0,94,0.00,,OVC250,0.00,VWS V14.01,2013-06-23 05:56:00,
2013-06-23 01:00:00,65.3,63.5,29.92,West,261,0.0,0.0,94,0.00,,FEW250,0.00,VWS V14.01,2013-06-23 06:00:00,
2013-06-23 01:01:00,65.3,63.5,29.92,West,260,0.0,0.0,94,0.00,,BKN080,0.00,VWS V14.01,2013-06-23 06:01:00,
2013-06-23 01:05:00,65.3,63.5,29.92,West,259,0.0,0.0,94,0.00,,BKN080,0.00,VWS V14.01,2013-06-23 06:05:00,
2013-06-23 01:10:00,65.4,63.6,29.92,West,259,0.0,0.0,94,0.00,,BKN080,0.00,VWS V14.01,2013-06-23 06:10:00,
2013-06-23 01:15:00,65.4,63.6,29.92,West,259,0.0,0.0,94,0.00,,BKN080,0.00,VWS V14.01,2013-06-23 06:15:00,
2013-06-23 01:20:00,65.4,63.6,29.92,West,259,0.0,0.0,94,0.00,,BKN080,0.00,VWS V14.01,2013-06-23 06:20:00,
2013-06-23 01:25:00,65.4,63.3,29.92,West,259,0.0,0.0,93,0.00,,BKN080,0.00,VWS V14.01,2013-06-23 06:25:00,
2013-06-23 01:30:00,65.3,63.5,29.92,West,259,0.0,0.0,94,0.00,,BKN080,0.00,VWS V14.01,2013-06-23 06:30:00,
2013-06-23 01:35:00,65.2,63.1,29.93,West,259,0.0,0.0,93,0.00,,BKN080,0.00,VWS V14.01,2013-06-23 06:35:00,
2013-06-23 01:40:00,65.3,63.5,29.93,West,259,0.0,0.0,94,0.00,,BKN080,0.00,VWS V14.01,2013-06-23 06:40:00,
2013-06-23 01:45:00,65.3,63.5,29.93,West,259,0.0,0.0,94,0.00,,BKN080,0.00,VWS V14.01,2013-06-23 06:45:00,
2013-06-23 01:50:00,65.3,63.5,29.94,West,259,0.0,0.0,94,0.00,,BKN080,0.00,VWS V14.01,2013-06-23 06:50:00,
2013-06-23 01:55:00,65.3,63.5,29.94,SW,222,0.0,0.0,94,0.00,,BKN080,0.00,VWS V14.01,2013-06-23 06:55:00,
2013-06-23 02:00:00,65.4,63.6,29.93,SW,223,0.0,0.0,94,0.00,,BKN080,0.00,VWS V14.01,2013-06-23 07:00:00,
2013-06-23 02:05:00,65.4,63.6,29.93,SW,225,0.0,0.0,94,0.00,,BKN047,0.00,VWS V14.01,2013-06-23 07:05:00,
2013-06-23 02:10:00,65.5,64.0,29.94,SW,221,0.0,0.0,95,0.00,,CLR,0.00,VWS V14.01,2013-06-23 07:10:00,
2013-06-23 02:11:00,65.5,64.0,29.94,SSW,213,0.0,0.0,95,0.00,,BKN047,0.00,VWS V14.01,2013-06-23 07:11:00,
2013-06-23 02:15:00,65.5,63.7,29.94,WSW,239,0.0,0.0,94,0.00,,FEW250,0.00,VWS V14.01,2013-06-23 07:15:00,
2013-06-23 02:16:00,65.6,64.1,29.93,SW,233,0.0,0.0,95,0.00,,BKN047,0.00,VWS V14.01,2013-06-23 07:16:00,
2013-06-23 02:20:00,65.7,64.2,29.94,SW,231,0.0,0.0,95,0.00,,FEW250,0.00,VWS V14.01,2013-06-23 07:20:00,
2013-06-23 02:21:00,65.7,64.2,29.93,SW,227,0.0,0.0,95,0.00,,BKN047,0.00,VWS V14.01,2013-06-23 07:21:00,
2013-06-23 02:25:00,65.9,64.4,29.93,SW,217,0.0,0.0,95,0.00,,FEW250,0.00,VWS V14.01,2013-06-23 07:25:00,
2013-06-23 02:26:00,66.0,64.2,29.93,SSW,211,0.0,0.0,94,0.00,,BKN047,0.00,VWS V14.01,2013-06-23 07:26:00,
2013-06-23 02:30:00,66.1,64.6,29.93,SSW,209,0.0,0.0,95,0.00,,FEW250,0.00,VWS V14.01,2013-06-23 07:30:00,
2013-06-23 02:31:00,66.1,64.3,29.92,SSW,209,0.0,0.0,94,0.00,,BKN047,0.00,VWS V14.01,2013-06-23 07:31:00,
2013-06-23 02:35:00,66.2,64.4,29.92,SW,216,0.0,0.0,94,0.00,,FEW250,0.00,VWS V14.01,2013-06-23 07:35:00,
2013-06-23 02:36:00,66.2,64.4,29.92,SW,217,0.0,0.0,94,0.00,,BKN047,0.00,VWS V14.01,2013-06-23 07:36:00,
2013-06-23 02:40:00,66.4,64.6,29.92,SW,222,0.0,0.0,94,0.00,,FEW250,0.00,VWS V14.01,2013-06-23 07:40:00,
2013-06-23 02:41:00,66.4,64.6,29.92,SW,222,0.0,0.0,94,0.00,,BKN047,0.00,VWS V14.01,2013-06-23 07:41:00,
2013-06-23 02:45:00,66.5,64.7,29.91,SW,216,0.0,0.0,94,0.00,,FEW250,0.00,VWS V14.01,2013-06-23 07:45:00,
2013-06-23 02:46:00,66.5,64.7,29.91,SW,216,0.0,0.0,94,0.00,,BKN047,0.00,VWS V14.01,2013-06-23 07:46:00,
2013-06-23 02:50:00,66.6,64.8,29.91,SSW,205,0.0,0.0,94,0.00,,FEW250,0.00,VWS V14.01,2013-06-23 07:50:00,
2013-06-23 02:51:00,66.6,64.8,29.90,South,188,0.0,0.0,94,0.00,,BKN047,0.00,VWS V14.01,2013-06-23 07:51:00,
2013-06-23 02:55:00,66.7,64.9,29.90,SSW,195,0.0,0.0,94,0.00,,FEW250,0.00,VWS V14.01,2013-06-23 07:55:00,
2013-06-23 02:56:00,66.8,65.0,29.90,South,187,0.0,0.0,94,0.00,,BKN047,0.00,VWS V14.01,2013-06-23 07:56:00,
2013-06-23 03:00:00,66.8,64.7,29.90,South,187,0.0,0.0,93,0.00,,FEW250,0.00,VWS V14.01,2013-06-23 08:00:00,
2013-06-23 03:01:00,66.8,64.7,29.90,South,187,0.0,0.0,93,0.00,,SCT050,0.00,VWS V14.01,2013-06-23 08:01:00,
2013-06-23 03:05:00,66.7,64.6,29.90,South,187,0.0,0.0,93,0.00,,FEW250,0.00,VWS V14.01,2013-06-23 08:05:00,
2013-06-23 03:06:00,66.5,64.1,29.90,South,177,0.0,0.0,92,0.00,,SCT050,0.00,VWS V14.01,2013-06-23 08:06:00,
2013-06-23 03:10:00,65.9,63.5,29.89,ESE,123,0.0,0.0,92,0.00,,FEW250,0.00,VWS V14.01,2013-06-23 08:10:00,
2013-06-23 03:11:00,65.7,63.6,29.89,ESE,123,0.0,0.0,93,0.00,,SCT050,0.00,VWS V14.01,2013-06-23 08:11:00,
2013-06-23 03:15:00,65.6,63.5,29.89,ESE,123,0.0,0.0,93,0.00,,FEW250,0.00,VWS V14.01,2013-06-23 08:15:00,
2013-06-23 03:16:00,65.6,63.5,29.89,ESE,123,0.0,0.0,93,0.00,,SCT050,0.00,VWS V14.01,2013-06-23 08:16:00,
2013-06-23 03:20:00,65.6,63.8,29.88,ESE,123,0.0,0.0,94,0.00,,FEW250,0.00,VWS V14.01,2013-06-23 08:20:00,
2013-06-23 03:21:00,65.6,63.8,29.88,ESE,123,0.0,0.0,94,0.00,,SCT050,0.00,VWS V14.01,2013-06-23 08:21:00,
2013-06-23 03:25:00,65.6,63.8,29.88,ESE,123,0.0,0.0,94,0.00,,FEW250,0.00,VWS V14.01,2013-06-23 08:25:00,
2013-06-23 03:26:00,65.6,63.8,29.88,ESE,123,0.0,0.0,94,0.00,,SCT050,0.00,VWS V14.01,2013-06-23 08:26:00,
2013-06-23 03:30:00,65.7,63.9,29.87,ESE,123,0.0,0.0,94,0.00,,FEW250,0.00,VWS V14.01,2013-06-23 08:30:00,
2013-06-23 03:31:00,65.7,63.9,29.87,ESE,123,0.0,0.0,94,0.00,,SCT050,0.00,VWS V14.01,2013-06-23 08:31:00,
2013-06-23 03:35:00,65.7,63.9,29.88,ESE,123,0.0,0.0,94,0.00,,FEW250,0.00,VWS V14.01,2013-06-23 08:35:00,
2013-06-23 03:36:00,65.7,63.9,29.88,ESE,123,0.0,0.0,94,0.00,,SCT050,0.00,VWS V14.01,2013-06-23 08:36:00,
2013-06-23 03:40:00,65.6,63.8,29.88,ESE,123,0.0,0.0,94,0.00,,FEW250,0.00,VWS V14.01,2013-06-23 08:40:00,
2013-06-23 03:41:00,65.6,63.8,29.88,ESE,123,0.0,0.0,94,0.00,,SCT050,0.00,VWS V14.01,2013-06-23 08:41:00,
2013-06-23 03:45:00,65.5,63.7,29.88,ESE,123,0.0,0.0,94,0.00,,FEW250,0.00,VWS V14.01,2013-06-23 08:45:00,
2013-06-23 03:47:00,65.4,63.6,29.88,ESE,123,0.0,0.0,94,0.00,,SCT050,0.00,VWS V14.01,2013-06-23 08:47:00,
2013-06-23 03:50:00,65.4,63.6,29.89,South,190,0.0,0.0,94,0.00,,FEW250,0.00,VWS V14.01,2013-06-23 08:50:00,
2013-06-23 03:52:00,65.5,63.7,29.89,South,190,0.0,0.0,94,0.00,,SCT050,0.00,VWS V14.01,2013-06-23 08:52:00,
2013-06-23 03:55:00,65.4,63.6,29.89,SW,228,0.0,0.0,94,0.00,,FEW250,0.00,VWS V14.01,2013-06-23 08:55:00,
2013-06-23 03:57:00,65.3,63.5,29.89,SW,234,0.0,0.0,94,0.00,,SCT050,0.00,VWS V14.01,2013-06-23 08:57:00,
2013-06-23 04:00:00,65.2,63.4,29.89,WSW,253,0.0,0.0,94,0.00,,FEW250,0.00,VWS V14.01,2013-06-23 09:00:00,
2013-06-23 04:02:00,65.1,63.6,29.89,WSW,253,0.0,0.0,95,0.00,,SCT200,0.00,VWS V14.01,2013-06-23 09:02:00,
2013-06-23 04:05:00,65.1,63.6,29.90,WSW,253,0.0,0.0,95,0.00,,FEW250,0.00,VWS V14.01,2013-06-23 09:05:00,
2013-06-23 04:07:00,65.0,63.5,29.90,WSW,253,0.0,0.0,95,0.00,,SCT200,0.00,VWS V14.01,2013-06-23 09:07:00,
2013-06-23 04:10:00,65.0,63.5,29.89,WSW,253,0.0,0.0,95,0.00,,FEW250,0.00,VWS V14.01,2013-06-23 09:10:00,
2013-06-23 04:12:00,64.9,63.4,29.90,WSW,253,0.0,0.0,95,0.00,,SCT200,0.00,VWS V14.01,2013-06-23 09:12:00,
2013-06-23 04:15:00,64.9,63.4,29.90,WSW,253,0.0,0.0,95,0.00,,FEW250,0.00,VWS V14.01,2013-06-23 09:15:00,
2013-06-23 04:17:00,64.8,63.3,29.89,WSW,247,0.0,0.0,95,0.00,,SCT200,0.00,VWS V14.01,2013-06-23 09:17:00,
2013-06-23 04:20:00,64.8,63.3,29.89,SSW,201,0.0,0.0,95,0.00,,FEW250,0.00,VWS V14.01,2013-06-23 09:20:00,
2013-06-23 04:22:00,64.9,63.4,29.89,SSW,196,0.0,0.0,95,0.00,,SCT200,0.00,VWS V14.01,2013-06-23 09:22:00,
2013-06-23 04:25:00,64.9,63.4,29.89,SSW,210,0.0,0.0,95,0.00,,FEW250,0.00,VWS V14.01,2013-06-23 09:25:00,
2013-06-23 04:27:00,64.9,63.7,29.88,North,360,0.0,0.0,96,0.00,,SCT200,0.00,VWS V14.01,2013-06-23 09:27:00,
2013-06-23 04:30:00,65.0,63.8,29.88,South,174,0.0,0.0,96,0.00,,FEW250,0.00,VWS V14.01,2013-06-23 09:30:00,
2013-06-23 04:32:00,65.1,63.9,29.88,SSW,202,0.0,0.0,96,0.00,,SCT200,0.00,VWS V14.01,2013-06-23 09:32:00,
2013-06-23 04:35:00,65.2,64.0,29.89,SSW,202,1.0,8.0,96,0.00,,FEW250,0.00,VWS V14.01,2013-06-23 09:35:00,
2013-06-23 04:37:00,65.3,63.8,29.89,SSW,192,0.0,6.0,95,0.00,,SCT200,0.00,VWS V14.01,2013-06-23 09:37:00,
2013-06-23 04:40:00,65.3,63.8,29.89,SSW,200,2.0,4.0,95,0.00,,FEW250,0.00,VWS V14.01,2013-06-23 09:40:00,
2013-06-23 04:42:00,65.3,63.8,29.89,SSW,193,2.0,4.0,95,0.00,,SCT200,0.00,VWS V14.01,2013-06-23 09:42:00,
2013-06-23 04:45:00,65.4,63.9,29.89,SSW,205,0.0,5.0,95,0.00,,FEW250,0.00,VWS V14.01,2013-06-23 09:45:00,
2013-06-23 04:47:00,65.4,63.9,29.89,South,187,0.0,4.0,95,0.00,,SCT200,0.00,VWS V14.01,2013-06-23 09:47:00,
2013-06-23 04:50:00,65.5,64.0,29.89,SSW,193,2.0,7.0,95,0.00,,FEW250,0.00,VWS V14.01,2013-06-23 09:50:00,
2013-06-23 04:52:00,65.6,64.1,29.89,SSW,208,1.0,8.0,95,0.00,,SCT200,0.00,VWS V14.01,2013-06-23 09:52:00,
2013-06-23 04:55:00,65.7,64.2,29.89,South,182,3.0,8.0,95,0.00,,CLR,0.00,VWS V14.01,2013-06-23 09:55:00,
2013-06-23 04:57:00,65.8,64.3,29.89,South,184,1.0,4.0,95,0.00,,SCT200,0.00,VWS V14.01,2013-06-23 09:57:00,
2013-06-23 05:00:00,65.9,64.4,29.89,SSW,198,3.0,4.0,95,0.00,,FEW250,0.00,VWS V14.01,2013-06-23 10:00:00,
2013-06-23 05:02:00,65.9,64.1,29.89,SSW,194,3.0,5.0,94,0.00,,SCT200,0.00,VWS V14.01,2013-06-23 10:02:00,
2013-06-23 05:05:00,66.1,64.3,29.89,SSW,205,6.0,11.0,94,0.00,,CLR,0.00,VWS V14.01,2013-06-23 10:05:00,
2013-06-23 05:07:00,66.1,64.3,29.89,South,178,4.0,11.0,94,0.00,,SCT200,0.00,VWS V14.01,2013-06-23 10:07:00,
2013-06-23 05:10:00,66.1,64.3,29.88,South,190,8.0,11.0,94,0.00,,CLR,0.00,VWS V14.01,2013-06-23 10:10:00,
2013-06-23 05:12:00,66.3,64.5,29.88,South,178,1.0,11.0,94,0.00,,SCT200,0.00,VWS V14.01,2013-06-23 10:12:00,
2013-06-23 05:15:00,66.3,64.5,29.88,SSW,213,4.0,10.0,94,0.00,,CLR,0.00,VWS V14.01,2013-06-23 10:15:00,
2013-06-23 05:17:00,66.3,64.5,29.89,SSW,198,7.0,11.0,94,0.00,,SCT200,0.00,VWS V14.01,2013-06-23 10:17:00,
2013-06-23 05:20:00,66.4,64.6,29.89,SW,219,5.0,11.0,94,0.00,,FEW250,0.00,VWS V14.01,2013-06-23 10:20:00,
2013-06-23 05:23:00,66.4,64.6,29.89,North,360,5.0,9.0,94,0.00,,SCT200,0.00,VWS V14.01,2013-06-23 10:23:00,
2013-06-23 05:25:00,66.4,64.6,29.90,SW,215,3.0,10.0,94,0.00,,CLR,0.00,VWS V14.01,2013-06-23 10:25:00,
2013-06-23 05:28:00,66.5,64.4,29.89,SSW,212,6.0,9.0,93,0.00,,SCT200,0.00,VWS V14.01,2013-06-23 10:28:00,
2013-06-23 05:30:00,66.4,64.3,29.90,South,191,1.0,9.0,93,0.00,,CLR,0.00,VWS V14.01,2013-06-23 10:30:00,
2013-06-23 05:33:00,66.4,64.3,29.90,SSW,208,2.0,7.0,93,0.00,,SCT200,0.00,VWS V14.01,2013-06-23 10:33:00,
2013-06-23 05:35:00,66.4,64.3,29.90,SW,236,3.0,6.0,93,0.00,,CLR,0.00,VWS V14.01,2013-06-23 10:35:00,
2013-06-23 05:38:00,66.4,64.3,29.90,SW,236,4.0,6.0,93,0.00,,SCT200,0.00,VWS V14.01,2013-06-23 10:38:00,
2013-06-23 05:40:00,66.4,64.3,29.90,SSW,205,3.0,6.0,93,0.00,,CLR,0.00,VWS V14.01,2013-06-23 10:40:00,
2013-06-23 05:43:00,66.3,64.5,29.89,SW,220,0.0,6.0,94,0.00,,SCT200,0.00,VWS V14.01,2013-06-23 10:43:00,
2013-06-23 05:45:00,66.3,64.5,29.90,SW,225,1.0,6.0,94,0.00,,CLR,0.00,VWS V14.01,2013-06-23 10:45:00,
2013-06-23 05:48:00,66.3,64.5,29.90,SW,217,2.0,6.0,94,0.00,,SCT200,0.00,VWS V14.01,2013-06-23 10:48:00,
2013-06-23 05:50:00,66.3,64.5,29.89,SW,223,4.0,6.0,94,0.00,,CLR,0.00,VWS V14.01,2013-06-23 10:50:00,
2013-06-23 05:53:00,66.2,64.4,29.89,SSW,196,5.0,8.0,94,0.00,,SCT200,0.00,VWS V14.01,2013-06-23 10:53:00,
2013-06-23 05:55:00,66.3,64.5,29.89,SW,215,2.0,5.0,94,0.00,,FEW250,0.00,VWS V14.01,2013-06-23 10:55:00,
2013-06-23 05:58:00,66.3,64.5,29.89,SW,234,0.0,5.0,94,0.00,,SCT200,0.00,VWS V14.01,2013-06-23 10:58:00,
2013-06-23 06:00:00,66.3,64.5,29.89,SW,232,2.0,5.0,94,0.00,,CLR,0.00,VWS V14.01,2013-06-23 11:00:00,
2013-06-23 06:03:00,66.4,64.6,29.89,WSW,242,0.0,5.0,94,0.00,,BKN200,0.00,VWS V14.01,2013-06-23 11:03:00,
2013-06-23 06:05:00,66.4,64.6,29.89,SW,216,1.0,6.0,94,0.00,,FEW250,0.00,VWS V14.01,2013-06-23 11:05:00,
2013-06-23 06:08:00,66.5,64.7,29.89,WSW,237,4.0,4.0,94,0.00,,BKN200,0.00,VWS V14.01,2013-06-23 11:08:00,
2013-06-23 06:10:00,66.6,64.5,29.89,WSW,238,1.0,4.0,93,0.00,,FEW250,0.00,VWS V14.01,2013-06-23 11:10:00,
2013-06-23 06:13:00,66.7,64.6,29.88,SSW,194,3.0,5.0,93,0.00,,BKN200,0.00,VWS V14.01,2013-06-23 11:13:00,
2013-06-23 06:15:00,66.7,64.6,29.88,SSW,201,2.0,5.0,93,0.00,,FEW250,0.00,VWS V14.01,2013-06-23 11:15:00,
2013-06-23 06:18:00,66.8,64.7,29.88,SSW,194,0.0,4.0,93,0.00,,BKN200,0.00,VWS V14.01,2013-06-23 11:18:00,
2013-06-23 06:20:00,66.8,64.7,29.88,SSW,199,0.0,4.0,93,0.00,,FEW250,0.00,VWS V14.01,2013-06-23 11:20:00,
2013-06-23 06:23:00,67.0,64.9,29.88,South,191,0.0,6.0,93,0.00,,BKN200,0.00,VWS V14.01,2013-06-23 11:23:00,
2013-06-23 06:25:00,67.1,65.0,29.88,SSW,196,0.0,6.0,93,0.00,,FEW250,0.00,VWS V14.01,2013-06-23 11:25:00,
2013-06-23 06:28:00,67.2,64.8,29.88,SSW,198,0.0,0.0,92,0.00,,BKN200,0.00,VWS V14.01,2013-06-23 11:28:00,
2013-06-23 06:30:00,67.3,64.9,29.88,South,186,0.0,0.0,92,0.00,,FEW250,0.00,VWS V14.01,2013-06-23 11:30:00,
2013-06-23 06:33:00,67.5,65.1,29.88,South,175,5.0,7.0,92,0.00,,BKN200,0.00,VWS V14.01,2013-06-23 11:33:00,
2013-06-23 06:35:00,67.6,64.9,29.88,SSW,202,7.0,7.0,91,0.00,,CLR,0.00,VWS V14.01,2013-06-23 11:35:00,
2013-06-23 06:38:00,67.7,65.0,29.87,SSW,194,0.0,9.0,91,0.00,,BKN200,0.00,VWS V14.01,2013-06-23 11:38:00,
2013-06-23 06:40:00,67.8,65.1,29.86,South,184,1.0,9.0,91,0.00,,CLR,0.00,VWS V14.01,2013-06-23 11:40:00,
2013-06-23 06:43:00,68.1,65.1,29.86,South,180,3.0,7.0,90,0.00,,BKN200,0.00,VWS V14.01,2013-06-23 11:43:00,
2013-06-23 06:45:00,68.2,65.2,29.85,South,188,4.0,7.0,90,0.00,,FEW250,0.00,VWS V14.01,2013-06-23 11:45:00,
2013-06-23 06:48:00,68.6,65.2,29.85,SSW,200,4.0,6.0,89,0.00,,BKN200,0.00,VWS V14.01,2013-06-23 11:48:00,
2013-06-23 06:50:00,68.7,65.3,29.85,South,182,3.0,7.0,89,0.00,,FEW250,0.00,VWS V14.01,2013-06-23 11:50:00,
2013-06-23 06:53:00,69.0,65.6,29.85,South,178,3.0,10.0,89,0.00,,BKN200,0.00,VWS V14.01,2013-06-23 11:53:00,
2013-06-23 06:55:00,69.1,65.4,29.85,North,360,4.0,10.0,88,0.00,,CLR,0.00,VWS V14.01,2013-06-23 11:55:00,
2013-06-23 06:58:00,69.4,65.4,29.85,South,173,4.0,11.0,87,0.00,,BKN200,0.00,VWS V14.01,2013-06-23 11:58:00,
2013-06-23 07:00:00,69.4,65.4,29.84,South,185,2.0,11.0,87,0.00,,CLR,0.00,VWS V14.01,2013-06-23 12:00:00,
2013-06-23 07:04:00,69.7,65.7,29.84,South,175,6.0,8.0,87,0.00,,BKN200,0.00,VWS V14.01,2013-06-23 12:04:00,
2013-06-23 07:05:00,69.8,65.8,29.84,SSW,198,1.0,8.0,87,0.00,,FEW250,0.00,VWS V14.01,2013-06-23 12:05:00,
2013-06-23 07:09:00,70.1,65.7,29.84,SSW,202,3.0,8.0,86,0.00,,BKN200,0.00,VWS V14.01,2013-06-23 12:09:00,
2013-06-23 07:10:00,70.1,65.7,29.84,South,190,2.0,9.0,86,0.00,,FEW250,0.00,VWS V14.01,2013-06-23 12:10:00,
2013-06-23 07:14:00,70.4,66.0,29.84,SSE,168,5.0,12.0,86,0.00,,BKN200,0.00,VWS V14.01,2013-06-23 12:14:00,
2013-06-23 07:15:00,70.4,65.7,29.84,South,178,3.0,12.0,85,0.00,,FEW250,0.00,VWS V14.01,2013-06-23 12:15:00,
2013-06-23 07:19:00,70.9,66.2,29.84,South,184,4.0,10.0,85,0.00,,BKN200,0.00,VWS V14.01,2013-06-23 12:19:00,
2013-06-23 07:20:00,70.9,66.2,29.84,South,188,4.0,11.0,85,0.00,,FEW250,0.00,VWS V14.01,2013-06-23 12:20:00,
2013-06-23 07:24:00,71.3,66.2,29.84,SSW,194,8.0,15.0,84,0.00,,BKN200,0.00,VWS V14.01,2013-06-23 12:24:00,
2013-06-23 07:25:00,71.4,66.3,29.84,South,179,5.0,15.0,84,0.00,,FEW250,0.00,VWS V14.01,2013-06-23 12:25:00,
2013-06-23 07:29:00,71.8,66.4,29.84,South,179,5.0,8.0,83,0.00,,BKN200,0.00,VWS V14.01,2013-06-23 12:29:00,
2013-06-23 07:30:00,71.8,66.4,29.84,South,174,8.0,10.0,83,0.00,,FEW250,0.00,VWS V14.01,2013-06-23 12:30:00,
2013-06-23 07:34:00,72.1,66.7,29.84,SSW,192,0.0,10.0,83,0.00,,BKN200,0.00,VWS V14.01,2013-06-23 12:34:00,
2013-06-23 07:35:00,72.2,66.8,29.84,South,190,0.0,9.0,83,0.00,,FEW250,0.00,VWS V14.01,2013-06-23 12:35:00,
2013-06-23 07:39:00,72.4,66.6,29.85,South,170,6.0,11.0,82,0.00,,BKN200,0.00,VWS V14.01,2013-06-23 12:39:00,
2013-06-23 07:40:00,72.4,66.2,29.85,SSW,198,6.0,11.0,81,0.00,,FEW250,0.00,VWS V14.01,2013-06-23 12:40:00,
2013-06-23 07:44:00,72.5,66.7,29.85,South,172,6.0,13.0,82,0.00,,BKN200,0.00,VWS V14.01,2013-06-23 12:44:00,
2013-06-23 07:45:00,72.6,66.8,29.85,North,360,12.0,13.0,82,0.00,,FEW250,0.00,VWS V14.01,2013-06-23 12:45:00,
2013-06-23 07:49:00,72.8,66.6,29.84,North,360,7.0,15.0,81,0.00,,BKN200,0.00,VWS V14.01,2013-06-23 12:49:00,
2013-06-23 07:50:00,72.8,66.6,29.84,North,360,8.0,15.0,81,0.00,,FEW250,0.00,VWS V14.01,2013-06-23 12:50:00,
2013-06-23 07:54:00,73.0,66.8,29.84,South,178,5.0,19.0,81,0.00,,BKN200,0.00,VWS V14.01,2013-06-23 12:54:00,
2013-06-23 07:55:00,73.0,66.8,29.84,North,360,12.0,19.0,81,0.00,,FEW250,0.00,VWS V14.01,2013-06-23 12:55:00,
2013-06-23 07:59:00,73.1,66.9,29.85,SSW,205,11.0,14.0,81,0.00,,BKN200,0.00,VWS V14.01,2013-06-23 12:59:00,
2013-06-23 08:00:00,73.1,66.9,29.85,SSW,198,6.0,14.0,81,0.00,,FEW250,0.00,VWS V14.01,2013-06-23 13:00:00,
2013-06-23 08:04:00,73.3,67.1,29.85,SW,223,4.0,15.0,81,0.00,,SCT200,0.00,VWS V14.01,2013-06-23 13:04:00,
2013-06-23 08:05:00,73.4,67.2,29.85,SSW,196,8.0,15.0,81,0.00,,FEW250,0.00,VWS V14.01,2013-06-23 13:05:00,
2013-06-23 08:09:00,73.5,67.3,29.85,SSW,205,3.0,20.0,81,0.00,,SCT200,0.00,VWS V14.01,2013-06-23 13:09:00,
2013-06-23 08:10:00,73.5,67.3,29.85,SSW,207,1.0,20.0,81,0.00,,FEW250,0.00,VWS V14.01,2013-06-23 13:10:00,
2013-06-23 08:14:00,73.8,67.2,29.86,North,360,2.0,16.0,80,0.00,,SCT200,0.00,VWS V14.01,2013-06-23 13:14:00,
2013-06-23 08:15:00,73.8,67.2,29.86,North,360,2.0,16.0,80,0.00,,FEW250,0.00,VWS V14.01,2013-06-23 13:15:00,
2013-06-23 08:19:00,74.3,67.7,29.86,SW,214,10.0,12.0,80,0.00,,SCT200,0.00,VWS V14.01,2013-06-23 13:19:00,
2013-06-23 08:20:00,74.3,67.7,29.86,SW,214,10.0,12.0,80,0.00,,FEW250,0.00,VWS V14.01,2013-06-23 13:20:00,
2013-06-23 08:24:00,74.6,67.7,29.87,SSE,167,5.0,12.0,79,0.00,,SCT200,0.00,VWS V14.01,2013-06-23 13:24:00,
2013-06-23 08:25:00,74.6,67.7,29.87,SSE,167,5.0,12.0,79,0.00,,FEW250,0.00,VWS V14.01,2013-06-23 13:25:00,
2013-06-23 08:29:00,74.9,67.9,29.87,SSW,209,7.0,13.0,79,0.00,,SCT200,0.00,VWS V14.01,2013-06-23 13:29:00,
2013-06-23 08:30:00,74.9,67.9,29.87,SSW,209,7.0,13.0,79,0.00,,FEW250,0.00,VWS V14.01,2013-06-23 13:30:00,
2013-06-23 08:34:00,75.0,67.7,29.87,SSW,213,10.0,13.0,78,0.00,,SCT200,0.00,VWS V14.01,2013-06-23 13:34:00,
2013-06-23 08:35:00,75.0,67.7,29.87,SSW,213,10.0,13.0,78,0.00,,FEW250,0.00,VWS V14.01,2013-06-23 13:35:00,
2013-06-23 08:39:00,75.0,67.7,29.87,North,360,10.0,18.0,78,0.00,,SCT200,0.00,VWS V14.01,2013-06-23 13:39:00,
2013-06-23 08:40:00,75.0,67.7,29.87,North,360,10.0,18.0,78,0.00,,FEW250,0.00,VWS V14.01,2013-06-23 13:40:00,
2013-06-23 08:44:00,75.3,68.0,29.87,South,188,6.0,13.0,78,0.00,,SCT200,0.00,VWS V14.01,2013-06-23 13:44:00,
2013-06-23 08:45:00,75.3,68.0,29.87,South,188,6.0,13.0,78,0.00,,FEW250,0.00,VWS V14.01,2013-06-23 13:45:00,
2013-06-23 08:49:00,75.8,68.1,29.88,SSW,199,3.0,13.0,77,0.00,,SCT200,0.00,VWS V14.01,2013-06-23 13:49:00,
2013-06-23 08:50:00,75.8,68.1,29.88,SSW,199,3.0,13.0,77,0.00,,FEW250,0.00,VWS V14.01,2013-06-23 13:50:00,
2013-06-23 08:55:00,76.2,67.7,29.88,SSW,209,13.0,16.0,75,0.00,,SCT200,0.00,VWS V14.01,2013-06-23 13:55:00,
2013-06-23 09:00:00,76.5,68.0,29.88,SW,223,7.0,16.0,75,0.00,,SCT200,0.00,VWS V14.01,2013-06-23 14:00:00,
2013-06-23 09:05:00,76.8,68.3,29.88,North,360,0.0,8.0,75,0.00,,SCT250,0.00,VWS V14.01,2013-06-23 14:05:00,
2013-06-23 09:10:00,76.9,68.8,29.88,SSW,194,1.0,6.0,76,0.00,,SCT250,0.00,VWS V14.01,2013-06-23 14:10:00,
2013-06-23 09:15:00,77.3,68.4,29.88,SW,217,10.0,14.0,74,0.00,,SCT250,0.00,VWS V14.01,2013-06-23 14:15:00,
2013-06-23 09:20:00,77.4,68.1,29.88,North,360,6.0,14.0,73,0.00,,SCT250,0.00,VWS V14.01,2013-06-23 14:20:00,
2013-06-23 09:25:00,77.6,68.3,29.89,SW,229,0.0,7.0,73,0.00,,SCT250,0.00,VWS V14.01,2013-06-23 14:25:00,
2013-06-23 09:30:00,77.8,68.5,29.89,WSW,237,2.0,6.0,73,0.00,,SCT250,0.00,VWS V14.01,2013-06-23 14:30:00,
2013-06-23 09:35:00,77.8,68.5,29.89,SW,223,9.0,13.0,73,0.00,,FEW250,0.00,VWS V14.01,2013-06-23 14:35:00,
2013-06-23 09:36:00,77.8,68.5,29.89,SW,229,0.0,13.0,73,0.00,,SCT250,0.00,VWS V14.01,2013-06-23 14:36:00,
2013-06-23 09:40:00,77.8,68.9,29.89,SW,219,0.0,5.0,74,0.00,,FEW250,0.00,VWS V14.01,2013-06-23 14:40:00,
2013-06-23 09:41:00,77.9,68.9,29.89,West,277,4.0,6.0,74,0.00,,SCT250,0.00,VWS V14.01,2013-06-23 14:41:00,
2013-06-23 09:45:00,78.1,68.8,29.89,South,179,2.0,9.0,73,0.00,,FEW250,0.00,VWS V14.01,2013-06-23 14:45:00,
2013-06-23 09:46:00,78.2,69.2,29.89,SW,232,4.0,8.0,74,0.00,,SCT250,0.00,VWS V14.01,2013-06-23 14:46:00,
2013-06-23 09:50:00,78.3,68.9,29.89,SW,229,5.0,8.0,73,0.00,,FEW250,0.00,VWS V14.01,2013-06-23 14:50:00,
2013-06-23 09:51:00,78.3,69.3,29.89,South,186,2.0,8.0,74,0.00,,SCT250,0.00,VWS V14.01,2013-06-23 14:51:00,
2013-06-23 09:55:00,78.4,69.4,29.89,SW,225,3.0,5.0,74,0.00,,FEW250,0.00,VWS V14.01,2013-06-23 14:55:00,
2013-06-23 09:56:00,78.5,69.1,29.89,SSW,209,2.0,9.0,73,0.00,,SCT250,0.00,VWS V14.01,2013-06-23 14:56:00,
2013-06-23 10:00:00,78.7,69.7,29.89,SSW,206,0.0,9.0,74,0.00,,FEW250,0.00,VWS V14.01,2013-06-23 15:00:00,
2013-06-23 10:01:00,78.8,69.8,29.89,WSW,242,9.0,9.0,74,0.00,,SCT250,0.00,VWS V14.01,2013-06-23 15:01:00,
2013-06-23 10:05:00,78.8,69.4,29.89,WSW,252,3.0,10.0,73,0.00,,FEW250,0.00,VWS V14.01,2013-06-23 15:05:00,
2013-06-23 10:06:00,78.8,69.8,29.89,SW,218,5.0,10.0,74,0.00,,SCT250,0.00,VWS V14.01,2013-06-23 15:06:00,
2013-06-23 10:10:00,78.9,69.9,29.90,WSW,245,0.0,10.0,74,0.00,,FEW250,0.00,VWS V14.01,2013-06-23 15:10:00,
2013-06-23 10:11:00,79.1,70.1,29.90,SSW,206,0.0,10.0,74,0.00,,SCT250,0.00,VWS V14.01,2013-06-23 15:11:00,
2013-06-23 10:15:00,79.2,70.2,29.89,SW,223,5.0,10.0,74,0.00,,FEW250,0.00,VWS V14.01,2013-06-23 15:15:00,
2013-06-23 10:16:00,79.2,70.2,29.89,South,190,6.0,12.0,74,0.00,,SCT250,0.00,VWS V14.01,2013-06-23 15:16:00,
2013-06-23 10:20:00,79.3,70.3,29.89,North,360,11.0,14.0,74,0.00,,FEW250,0.00,VWS V14.01,2013-06-23 15:20:00,
2013-06-23 10:22:00,79.4,70.4,29.89,SSW,211,7.0,15.0,74,0.00,,SCT250,0.00,VWS V14.01,2013-06-23 15:22:00,
2013-06-23 10:25:00,79.4,70.4,29.90,South,177,5.0,15.0,74,0.00,,FEW250,0.00,VWS V14.01,2013-06-23 15:25:00,
2013-06-23 10:27:00,79.5,70.5,29.90,SW,229,8.0,13.0,74,0.00,,SCT250,0.00,VWS V14.01,2013-06-23 15:27:00,
2013-06-23 10:30:00,79.5,70.5,29.90,SSW,198,9.0,16.0,74,0.00,,FEW250,0.00,VWS V14.01,2013-06-23 15:30:00,
2013-06-23 10:32:00,79.5,70.5,29.90,North,360,5.0,16.0,74,0.00,,SCT250,0.00,VWS V14.01,2013-06-23 15:32:00,
2013-06-23 10:35:00,79.7,71.1,29.90,South,178,7.0,11.0,75,0.00,,FEW250,0.00,VWS V14.01,2013-06-23 15:35:00,
2013-06-23 10:37:00,79.8,70.8,29.89,North,360,9.0,20.0,74,0.00,,SCT250,0.00,VWS V14.01,2013-06-23 15:37:00,
2013-06-23 10:40:00,80.0,70.6,29.89,North,360,13.0,20.0,73,0.00,,FEW250,0.00,VWS V14.01,2013-06-23 15:40:00,
2013-06-23 10:42:00,80.2,71.2,29.89,North,360,6.0,16.0,74,0.00,,SCT250,0.00,VWS V14.01,2013-06-23 15:42:00,
2013-06-23 10:45:00,80.3,70.9,29.89,North,360,3.0,17.0,73,0.00,,FEW250,0.00,VWS V14.01,2013-06-23 15:45:00,
2013-06-23 10:47:00,80.5,70.7,29.89,North,360,12.0,18.0,72,0.00,,SCT250,0.00,VWS V14.01,2013-06-23 15:47:00,
2013-06-23 10:50:00,80.7,71.2,29.89,SW,216,6.0,18.0,73,0.00,,FEW250,0.00,VWS V14.01,2013-06-23 15:50:00,
2013-06-23 10:52:00,81.2,71.3,29.89,North,360,13.0,13.0,72,0.00,,SCT250,0.00,VWS V14.01,2013-06-23 15:52:00,
2013-06-23 10:55:00,81.4,71.1,29.89,WSW,246,13.0,20.0,71,0.00,,FEW250,0.00,VWS V14.01,2013-06-23 15:55:00,
2013-06-23 10:58:00,81.6,70.9,29.89,North,360,7.0,25.0,70,0.00,,SCT250,0.00,VWS V14.01,2013-06-23 15:58:00,
2013-06-23 11:00:00,81.7,71.0,29.89,North,360,6.0,18.0,70,0.00,,FEW250,0.00,VWS V14.01,2013-06-23 16:00:00,
2013-06-23 11:03:00,82.0,71.3,29.89,SSW,196,15.0,23.0,70,0.00,,SCT250,0.00,VWS V14.01,2013-06-23 16:03:00,
2013-06-23 11:05:00,82.0,70.8,29.89,SW,225,14.0,23.0,69,0.00,,FEW250,0.00,VWS V14.01,2013-06-23 16:05:00,
2013-06-23 11:08:00,82.0,70.8,29.89,SSW,192,6.0,21.0,69,0.00,,SCT250,0.00,VWS V14.01,2013-06-23 16:08:00,
2013-06-23 11:10:00,82.1,70.9,29.89,North,360,4.0,21.0,69,0.00,,FEW250,0.00,VWS V14.01,2013-06-23 16:10:00,
2013-06-23 11:13:00,82.2,71.4,29.89,SSE,149,6.0,18.0,70,0.00,,SCT250,0.00,VWS V14.01,2013-06-23 16:13:00,
2013-06-23 11:15:00,82.3,71.5,29.89,North,360,4.0,18.0,70,0.00,,FEW250,0.00,VWS V14.01,2013-06-23 16:15:00,
2013-06-23 11:18:00,82.1,71.3,29.89,WSW,250,10.0,22.0,70,0.00,,SCT250,0.00,VWS V14.01,2013-06-23 16:18:00,
2013-06-23 11:20:00,82.1,71.3,29.89,North,360,17.0,22.0,70,0.00,,FEW250,0.00,VWS V14.01,2013-06-23 16:20:00,
2013-06-23 11:23:00,82.6,71.8,29.89,North,360,11.0,17.0,70,0.00,,SCT250,0.00,VWS V14.01,2013-06-23 16:23:00,
2013-06-23 11:25:00,82.7,71.5,29.89,North,360,15.0,15.0,69,0.00,,FEW250,0.00,VWS V14.01,2013-06-23 16:25:00,
2013-06-23 11:28:00,83.1,71.4,29.88,SW,236,6.0,15.0,68,0.00,,SCT250,0.00,VWS V14.01,2013-06-23 16:28:00,
2013-06-23 11:30:00,83.2,72.0,29.88,SSW,200,4.0,15.0,69,0.00,,FEW250,0.00,VWS V14.01,2013-06-23 16:30:00,
2013-06-23 11:34:00,83.6,71.9,29.88,North,360,8.0,12.0,68,0.00,,SCT250,0.00,VWS V14.01,2013-06-23 16:34:00,
2013-06-23 11:35:00,83.7,72.0,29.88,SW,232,6.0,12.0,68,0.00,,FEW250,0.00,VWS V14.01,2013-06-23 16:35:00,
2013-06-23 11:39:00,84.1,72.0,29.88,North,360,6.0,13.0,67,0.00,,SCT250,0.00,VWS V14.01,2013-06-23 16:39:00,
2013-06-23 11:40:00,84.1,72.4,29.88,SSW,192,4.0,13.0,68,0.00,,FEW250,0.00,VWS V14.01,2013-06-23 16:40:00,
2013-06-23 11:44:00,84.1,72.0,29.89,South,183,3.0,18.0,67,0.00,,SCT250,0.00,VWS V14.01,2013-06-23 16:44:00,
2013-06-23 11:45:00,84.2,72.1,29.89,SW,226,7.0,18.0,67,0.00,,FEW250,0.00,VWS V14.01,2013-06-23 16:45:00,
2013-06-23 11:49:00,84.2,71.2,29.88,SSW,213,9.0,20.0,65,0.00,,SCT250,0.00,VWS V14.01,2013-06-23 16:49:00,
2013-06-23 11:50:00,84.1,71.1,29.89,South,170,14.0,20.0,65,0.00,,FEW250,0.00,VWS V14.01,2013-06-23 16:50:00,
2013-06-23 11:54:00,84.3,72.2,29.88,North,360,0.0,15.0,67,0.00,,SCT250,0.00,VWS V14.01,2013-06-23 16:54:00,
2013-06-23 11:55:00,84.4,72.2,29.88,North,360,4.0,15.0,67,0.00,,CLR,0.00,VWS V14.01,2013-06-23 16:55:00,
2013-06-23 11:57:00,84.8,71.7,29.88,SW,221,8.0,14.0,65,0.00,,SCT250,0.00,VWS V14.01,2013-06-23 16:57:00,
2013-06-23 12:00:00,84.7,71.6,29.88,North,360,8.0,14.0,65,0.00,,SCT250,0.00,VWS V14.01,2013-06-23 17:00:00,
2013-06-23 12:05:00,84.8,72.2,29.88,South,175,1.0,12.0,66,0.00,,FEW150,0.00,VWS V14.01,2013-06-23 17:05:00,
2013-06-23 12:07:00,85.0,71.9,29.88,North,360,2.0,12.0,65,0.00,,FEW150,0.00,VWS V14.01,2013-06-23 17:07:00,
2013-06-23 12:08:00,85.0,71.5,29.88,SSW,199,9.0,12.0,64,0.00,,FEW150,0.00,VWS V14.01,2013-06-23 17:08:00,
2013-06-23 12:10:00,84.9,71.4,29.88,South,179,3.0,15.0,64,0.00,,FEW250,0.00,VWS V14.01,2013-06-23 17:10:00,
2013-06-23 12:13:00,84.7,71.2,29.88,North,360,7.0,20.0,64,0.00,,FEW150,0.00,VWS V14.01,2013-06-23 17:13:00,
2013-06-23 12:15:00,84.7,71.6,29.88,North,360,4.0,20.0,65,0.00,,FEW250,0.00,VWS V14.01,2013-06-23 17:15:00,
2013-06-23 12:18:00,84.6,71.6,29.88,North,360,13.0,18.0,65,0.00,,FEW150,0.00,VWS V14.01,2013-06-23 17:18:00,
2013-06-23 12:20:00,84.7,71.6,29.88,SW,226,17.0,17.0,65,0.00,,FEW250,0.00,VWS V14.01,2013-06-23 17:20:00,
2013-06-23 12:23:00,84.6,71.6,29.88,North,360,2.0,17.0,65,0.00,,FEW150,0.00,VWS V14.01,2013-06-23 17:23:00,
2013-06-23 12:25:00,84.8,71.7,29.88,SW,225,8.0,15.0,65,0.00,,FEW250,0.00,VWS V14.01,2013-06-23 17:25:00,
2013-06-23 12:28:00,85.1,71.6,29.88,SSW,200,8.0,15.0,64,0.00,,FEW150,0.00,VWS V14.01,2013-06-23 17:28:00,
2013-06-23 12:30:00,85.0,71.9,29.88,SSE,167,5.0,15.0,65,0.00,,FEW250,0.00,VWS V14.01,2013-06-23 17:30:00,
2013-06-23 12:33:00,85.0,71.9,29.88,South,174,4.0,15.0,65,0.00,,FEW150,0.00,VWS V14.01,2013-06-23 17:33:00,
2013-06-23 12:35:00,85.1,72.0,29.88,WSW,252,3.0,12.0,65,0.00,,FEW250,0.00,VWS V14.01,2013-06-23 17:35:00,
2013-06-23 12:38:00,85.5,72.4,29.88,South,181,9.0,15.0,65,0.00,,FEW150,0.00,VWS V14.01,2013-06-23 17:38:00,
2013-06-23 12:40:00,85.7,72.1,29.88,South,173,0.0,15.0,64,0.00,,FEW250,0.00,VWS V14.01,2013-06-23 17:40:00,
2013-06-23 12:43:00,85.4,71.8,29.88,South,176,0.0,15.0,64,0.00,,FEW150,0.00,VWS V14.01,2013-06-23 17:43:00,
2013-06-23 12:45:00,85.4,71.8,29.88,North,360,6.0,15.0,64,0.00,,FEW250,0.00,VWS V14.01,2013-06-23 17:45:00,
2013-06-23 12:48:00,85.5,71.9,29.88,SE,143,5.0,16.0,64,0.00,,FEW150,0.00,VWS V14.01,2013-06-23 17:48:00,
2013-06-23 12:50:00,85.7,72.6,29.88,North,360,5.0,16.0,65,0.00,,FEW250,0.00,VWS V14.01,2013-06-23 17:50:00,
2013-06-23 12:53:00,85.8,72.2,29.88,South,191,10.0,16.0,64,0.00,,FEW150,0.00,VWS V14.01,2013-06-23 17:53:00,
2013-06-23 12:55:00,85.7,72.1,29.88,South,181,2.0,16.0,64,0.00,,FEW250,0.00,VWS V14.01,2013-06-23 17:55:00,
2013-06-23 12:58:00,85.6,72.0,29.88,North,360,12.0,16.0,64,0.00,,FEW150,0.00,VWS V14.01,2013-06-23 17:58:00,
2013-06-23 13:00:00,85.6,72.0,29.88,North,360,6.0,15.0,64,0.00,,FEW250,0.00,VWS V14.01,2013-06-23 18:00:00,
2013-06-23 13:03:00,85.5,72.4,29.87,SW,219,5.0,17.0,65,0.00,,FEW230,0.00,VWS V14.01,2013-06-23 18:03:00,
2013-06-23 13:05:00,85.7,72.6,29.87,North,360,9.0,17.0,65,0.00,,FEW250,0.00,VWS V14.01,2013-06-23 18:05:00,
2013-06-23 13:08:00,86.1,72.5,29.87,SSE,155,7.0,15.0,64,0.00,,FEW230,0.00,VWS V14.01,2013-06-23 18:08:00,
2013-06-23 13:10:00,86.3,72.2,29.87,North,360,2.0,15.0,63,0.00,,FEW250,0.00,VWS V14.01,2013-06-23 18:10:00,
2013-06-23 13:13:00,86.1,72.0,29.87,SW,222,4.0,17.0,63,0.00,,FEW230,0.00,VWS V14.01,2013-06-23 18:13:00,
2013-06-23 13:15:00,86.2,72.1,29.87,North,360,3.0,17.0,63,0.00,,FEW250,0.00,VWS V14.01,2013-06-23 18:15:00,
2013-06-23 13:18:00,86.1,72.0,29.87,North,360,4.0,19.0,63,0.00,,FEW230,0.00,VWS V14.01,2013-06-23 18:18:00,
2013-06-23 13:20:00,86.2,72.1,29.87,North,360,0.0,19.0,63,0.00,,FEW250,0.00,VWS V14.01,2013-06-23 18:20:00,
2013-06-23 13:23:00,86.6,72.5,29.86,North,360,10.0,14.0,63,0.00,,FEW230,0.00,VWS V14.01,2013-06-23 18:23:00,
2013-06-23 13:25:00,86.7,72.1,29.86,South,181,14.0,16.0,62,0.00,,FEW250,0.00,VWS V14.01,2013-06-23 18:25:00,
2013-06-23 13:28:00,86.2,71.7,29.86,North,360,7.0,17.0,62,0.00,,FEW230,0.00,VWS V14.01,2013-06-23 18:28:00,
2013-06-23 13:30:00,86.2,72.1,29.86,North,360,8.0,17.0,63,0.00,,FEW250,0.00,VWS V14.01,2013-06-23 18:30:00,
2013-06-23 13:34:00,86.5,71.9,29.86,SSW,210,7.0,17.0,62,0.00,,FEW230,0.00,VWS V14.01,2013-06-23 18:34:00,
2013-06-23 13:35:00,86.5,71.9,29.86,SSW,202,13.0,17.0,62,0.00,,FEW250,0.00,VWS V14.01,2013-06-23 18:35:00,
2013-06-23 13:39:00,86.3,72.2,29.86,South,173,6.0,14.0,63,0.00,,FEW230,0.00,VWS V14.01,2013-06-23 18:39:00,
2013-06-23 13:40:00,86.3,72.2,29.86,North,360,7.0,13.0,63,0.00,,FEW250,0.00,VWS V14.01,2013-06-23 18:40:00,
2013-06-23 13:44:00,86.6,72.0,29.86,North,360,4.0,16.0,62,0.00,,FEW230,0.00,VWS V14.01,2013-06-23 18:44:00,
2013-06-23 13:45:00,86.7,72.1,29.86,SW,227,1.0,16.0,62,0.00,,FEW250,0.00,VWS V14.01,2013-06-23 18:45:00,
2013-06-23 13:49:00,86.9,71.8,29.86,SSW,209,4.0,16.0,61,0.00,,FEW230,0.00,VWS V14.01,2013-06-23 18:49:00,
2013-06-23 13:50:00,86.8,72.2,29.86,North,360,7.0,16.0,62,0.00,,FEW250,0.00,VWS V14.01,2013-06-23 18:50:00,
2013-06-23 13:54:00,86.9,72.3,29.86,North,360,14.0,16.0,62,0.00,,FEW230,0.00,VWS V14.01,2013-06-23 18:54:00,
2013-06-23 13:55:00,86.9,72.3,29.86,SW,215,0.0,16.0,62,0.00,,FEW250,0.00,VWS V14.01,2013-06-23 18:55:00,
2013-06-23 13:59:00,87.0,72.4,29.86,South,175,1.0,14.0,62,0.00,,FEW230,0.00,VWS V14.01,2013-06-23 18:59:00,
2013-06-23 14:00:00,87.1,72.0,29.85,SW,214,8.0,14.0,61,0.00,,FEW250,0.00,VWS V14.01,2013-06-23 19:00:00,
2013-06-23 14:04:00,87.5,72.9,29.85,South,178,3.0,15.0,62,0.00,,SCT200,0.00,VWS V14.01,2013-06-23 19:04:00,
2013-06-23 14:05:00,87.6,73.0,29.85,North,360,15.0,17.0,62,0.00,,FEW250,0.00,VWS V14.01,2013-06-23 19:05:00,
2013-06-23 14:09:00,87.8,72.2,29.85,North,360,8.0,16.0,60,0.00,,SCT200,0.00,VWS V14.01,2013-06-23 19:09:00,
2013-06-23 14:10:00,87.8,72.2,29.85,North,360,10.0,16.0,60,0.00,,FEW250,0.00,VWS V14.01,2013-06-23 19:10:00,
2013-06-23 14:14:00,87.8,72.7,29.84,WSW,255,2.0,13.0,61,0.00,,SCT200,0.00,VWS V14.01,2013-06-23 19:14:00,
2013-06-23 14:15:00,87.9,72.8,29.84,SSW,194,3.0,13.0,61,0.00,,FEW250,0.00,VWS V14.01,2013-06-23 19:15:00,
2013-06-23 14:19:00,87.8,72.2,29.84,South,180,5.0,18.0,60,0.00,,SCT200,0.00,VWS V14.01,2013-06-23 19:19:00,
2013-06-23 14:20:00,87.8,72.2,29.84,SSW,192,5.0,18.0,60,0.00,,FEW250,0.00,VWS V14.01,2013-06-23 19:20:00,
2013-06-23 14:24:00,86.2,68.2,29.84,ESE,108,0.0,5.0,55,0.00,,SCT200,0.00,VWS V14.01,2013-06-23 19:24:00,
2013-06-23 14:25:00,86.0,69.0,29.84,SSW,207,0.0,3.0,57,0.00,,FEW250,0.00,VWS V14.01,2013-06-23 19:25:00,
2013-06-23 14:29:00,86.2,73.1,29.84,SW,215,3.0,11.0,65,0.00,,SCT200,0.00,VWS V14.01,2013-06-23 19:29:00,
2013-06-23 14:30:00,86.4,72.8,29.84,North,360,4.0,8.0,64,0.00,,FEW250,0.00,VWS V14.01,2013-06-23 19:30:00,
2013-06-23 14:34:00,87.9,72.3,29.84,SW,219,12.0,19.0,60,0.00,,SCT200,0.00,VWS V14.01,2013-06-23 19:34:00,
2013-06-23 14:35:00,87.9,72.3,29.84,North,360,8.0,19.0,60,0.00,,FEW250,0.00,VWS V14.01,2013-06-23 19:35:00,
2013-06-23 14:39:00,88.8,72.6,29.83,North,360,7.0,10.0,59,0.00,,SCT200,0.00,VWS V14.01,2013-06-23 19:39:00,
2013-06-23 14:40:00,88.8,72.6,29.83,North,360,10.0,10.0,59,0.00,,FEW250,0.00,VWS V14.01,2013-06-23 19:40:00,
2013-06-23 14:44:00,88.9,71.7,29.84,SSW,205,7.0,18.0,57,0.00,,SCT200,0.00,VWS V14.01,2013-06-23 19:44:00,
2013-06-23 14:45:00,88.9,71.7,29.84,North,360,3.0,18.0,57,0.00,,FEW250,0.00,VWS V14.01,2013-06-23 19:45:00,
2013-06-23 14:49:00,88.2,71.1,29.84,North,360,8.0,20.0,57,0.00,,SCT200,0.00,VWS V14.01,2013-06-23 19:49:00,
2013-06-23 14:50:00,88.2,71.1,29.84,South,190,11.0,20.0,57,0.00,,FEW250,0.00,VWS V14.01,2013-06-23 19:50:00,
2013-06-23 14:54:00,88.1,72.0,29.83,North,360,10.0,18.0,59,0.00,,SCT200,0.00,VWS V14.01,2013-06-23 19:54:00,
2013-06-23 14:55:00,88.1,72.0,29.83,SSE,168,6.0,18.0,59,0.00,,FEW250,0.00,VWS V14.01,2013-06-23 19:55:00,
2013-06-23 14:59:00,88.0,71.9,29.84,North,360,9.0,19.0,59,0.00,,SCT200,0.00,VWS V14.01,2013-06-23 19:59:00,
2013-06-23 15:00:00,88.0,71.9,29.84,SW,218,11.0,19.0,59,0.00,,FEW250,0.00,VWS V14.01,2013-06-23 20:00:00,
2013-06-23 15:05:00,88.3,72.2,29.83,North,360,4.0,14.0,59,0.00,,SCT250,0.00,VWS V14.01,2013-06-23 20:05:00,
2013-06-23 15:10:00,87.9,71.3,29.83,North,360,3.0,7.0,58,0.00,,SCT250,0.00,VWS V14.01,2013-06-23 20:10:00,
2013-06-23 15:15:00,84.1,65.7,29.83,East,96,2.0,6.0,54,0.00,,SCT250,0.00,VWS V14.01,2013-06-23 20:15:00,
2013-06-23 15:20:00,78.7,66.4,29.82,East,92,0.0,6.0,66,0.00,,SCT250,0.00,VWS V14.01,2013-06-23 20:20:00,
2013-06-23 15:25:00,76.2,64.0,29.82,East,98,3.0,9.0,66,0.00,,SCT250,0.00,VWS V14.01,2013-06-23 20:25:00,
2013-06-23 15:30:00,73.6,64.0,29.83,East,98,3.0,7.0,72,0.00,,SCT250,0.00,VWS V14.01,2013-06-23 20:30:00,
2013-06-23 15:35:00,72.5,63.8,29.82,ESE,114,0.0,8.0,74,0.00,,SCT250,0.00,VWS V14.01,2013-06-23 20:35:00,
2013-06-23 15:40:00,71.5,63.2,29.82,East,82,0.0,8.0,75,0.00,,SCT250,0.00,VWS V14.01,2013-06-23 20:40:00,
2013-06-23 15:45:00,71.0,63.4,29.82,ESE,113,4.0,11.0,77,0.00,,SCT250,0.00,VWS V14.01,2013-06-23 20:45:00,
2013-06-23 15:50:00,70.7,63.5,29.82,SE,133,4.0,9.0,78,0.00,,SCT250,0.00,VWS V14.01,2013-06-23 20:50:00,
2013-06-23 15:55:00,71.0,63.8,29.82,ESE,119,7.0,10.0,78,0.00,,SCT250,0.00,VWS V14.01,2013-06-23 20:55:00,
2013-06-23 16:00:00,71.0,63.8,29.82,ESE,111,2.0,10.0,78,0.00,,FEW250,0.00,VWS V14.01,2013-06-23 21:00:00,
2013-06-23 16:01:00,71.0,63.8,29.82,SSE,155,1.0,10.0,78,0.00,,SCT250,0.00,VWS V14.01,2013-06-23 21:01:00,
2013-06-23 16:05:00,71.5,64.7,29.81,ESE,111,9.0,9.0,79,0.00,,FEW250,0.00,VWS V14.01,2013-06-23 21:05:00,
2013-06-23 16:06:00,71.6,64.4,29.81,SSE,148,4.0,10.0,78,0.00,,SCT250,0.00,VWS V14.01,2013-06-23 21:06:00,
2013-06-23 16:10:00,71.6,64.0,29.81,SE,146,4.0,14.0,77,0.00,,FEW250,0.00,VWS V14.01,2013-06-23 21:10:00,
2013-06-23 16:11:00,71.5,63.9,29.81,SE,126,2.0,14.0,77,0.00,,SCT250,0.00,VWS V14.01,2013-06-23 21:11:00,
2013-06-23 16:15:00,71.2,64.0,29.81,SE,142,5.0,10.0,78,0.00,,FEW250,0.00,VWS V14.01,2013-06-23 21:15:00,
2013-06-23 16:16:00,71.1,64.3,29.81,ESE,122,5.0,10.0,79,0.00,,SCT250,0.00,VWS V14.01,2013-06-23 21:16:00,
2013-06-23 16:20:00,71.3,64.5,29.81,SE,136,6.0,7.0,79,0.00,,FEW250,0.00,VWS V14.01,2013-06-23 21:20:00,
2013-06-23 16:21:00,71.4,64.2,29.81,ESE,117,0.0,7.0,78,0.00,,SCT250,0.00,VWS V14.01,2013-06-23 21:21:00,
2013-06-23 16:25:00,71.3,64.1,29.81,SE,126,0.0,9.0,78,0.00,,FEW250,0.00,VWS V14.01,2013-06-23 21:25:00,
2013-06-23 16:26:00,71.4,64.6,29.80,SE,126,5.0,9.0,79,0.00,,SCT250,0.00,VWS V14.01,2013-06-23 21:26:00,
2013-06-23 16:30:00,72.2,65.3,29.80,SE,124,4.0,8.0,79,0.00,,FEW250,0.00,VWS V14.01,2013-06-23 21:30:00,
2013-06-23 16:31:00,72.3,64.7,29.80,SE,125,4.0,9.0,77,0.00,,SCT250,0.00,VWS V14.01,2013-06-23 21:31:00,
2013-06-23 16:35:00,72.0,64.8,29.79,ESE,115,3.0,9.0,78,0.00,,FEW250,0.00,VWS V14.01,2013-06-23 21:35:00,
2013-06-23 16:36:00,71.9,64.3,29.79,ESE,112,4.0,9.0,77,0.00,,SCT250,0.00,VWS V14.01,2013-06-23 21:36:00,
2013-06-23 16:40:00,71.3,63.7,29.79,SW,224,6.0,11.0,77,0.00,,FEW250,0.00,VWS V14.01,2013-06-23 21:40:00,
2013-06-23 16:41:00,71.0,63.8,29.79,SSE,147,3.0,11.0,78,0.00,,SCT250,0.00,VWS V14.01,2013-06-23 21:41:00,
2013-06-23 16:45:00,70.6,63.8,29.80,SE,146,0.0,10.0,79,0.00,,FEW250,0.00,VWS V14.01,2013-06-23 21:45:00,
2013-06-23 16:46:00,70.6,64.1,29.80,SE,133,0.0,8.0,80,0.00,,SCT250,0.00,VWS V14.01,2013-06-23 21:46:00,
2013-06-23 16:50:00,71.2,65.4,29.81,SE,146,0.0,0.0,82,0.00,,FEW250,0.00,VWS V14.01,2013-06-23 21:50:00,
2013-06-23 16:51:00,71.6,65.8,29.81,SE,145,0.0,0.0,82,0.00,,SCT250,0.00,VWS V14.01,2013-06-23 21:51:00,
2013-06-23 16:55:00,73.3,68.2,29.81,SE,144,0.0,0.0,84,0.00,,FEW250,0.00,VWS V14.01,2013-06-23 21:55:00,
2013-06-23 16:56:00,74.2,68.7,29.81,SE,125,4.0,4.0,83,0.00,,SCT250,0.00,VWS V14.01,2013-06-23 21:56:00,
2013-06-23 17:00:00,75.5,68.5,29.81,SSE,150,0.0,4.0,79,0.00,,FEW250,0.00,VWS V14.01,2013-06-23 22:00:00,
2013-06-23 17:01:00,76.2,69.2,29.81,South,183,0.0,1.0,79,0.00,,BKN250,0.00,VWS V14.01,2013-06-23 22:01:00,
2013-06-23 17:05:00,77.7,69.9,29.81,SE,131,0.0,2.0,77,0.00,,FEW250,0.00,VWS V14.01,2013-06-23 22:05:00,
2013-06-23 17:06:00,78.2,69.2,29.81,SE,135,0.0,4.0,74,0.00,,BKN250,0.00,VWS V14.01,2013-06-23 22:06:00,
2013-06-23 17:10:00,78.3,68.5,29.81,SE,128,0.0,7.0,72,0.00,,FEW250,0.00,VWS V14.01,2013-06-23 22:10:00,
2013-06-23 17:11:00,78.1,67.9,29.81,SE,143,0.0,7.0,71,0.00,,BKN250,0.00,VWS V14.01,2013-06-23 22:11:00,
2013-06-23 17:15:00,78.0,68.2,29.81,ESE,117,0.0,4.0,72,0.00,,FEW250,0.00,VWS V14.01,2013-06-23 22:15:00,
2013-06-23 17:16:00,78.0,68.2,29.81,SE,126,0.0,2.0,72,0.00,,BKN250,0.00,VWS V14.01,2013-06-23 22:16:00,
2013-06-23 17:20:00,78.2,68.8,29.80,ESE,121,0.0,3.0,73,0.00,,FEW250,0.00,VWS V14.01,2013-06-23 22:20:00,
2013-06-23 17:21:00,78.4,69.0,29.80,SE,144,0.0,1.0,73,0.00,,BKN250,0.00,VWS V14.01,2013-06-23 22:21:00,
2013-06-23 17:25:00,79.1,70.1,29.80,SE,140,0.0,0.0,74,0.00,,FEW250,0.00,VWS V14.01,2013-06-23 22:25:00,
2013-06-23 17:26:00,79.6,69.8,29.80,SE,132,0.0,3.0,72,0.00,,BKN250,0.00,VWS V14.01,2013-06-23 22:26:00,
2013-06-23 17:30:00,80.1,69.9,29.80,ESE,119,4.0,4.0,71,0.00,,FEW250,0.00,VWS V14.01,2013-06-23 22:30:00,
2013-06-23 17:32:00,80.3,70.1,29.80,SE,142,0.0,4.0,71,0.00,,BKN250,0.00,VWS V14.01,2013-06-23 22:32:00,
2013-06-23 17:35:00,80.7,70.4,29.80,SE,136,0.0,1.0,71,0.00,,FEW250,0.00,VWS V14.01,2013-06-23 22:35:00,
2013-06-23 17:37:00,81.1,70.4,29.80,SE,136,0.0,0.0,70,0.00,,BKN250,0.00,VWS V14.01,2013-06-23 22:37:00,
2013-06-23 17:40:00,81.6,70.0,29.80,SE,136,0.0,0.0,68,0.00,,FEW250,0.00,VWS V14.01,2013-06-23 22:40:00,
2013-06-23 17:42:00,81.7,69.7,29.80,SE,124,0.0,2.0,67,0.00,,BKN250,0.00,VWS V14.01,2013-06-23 22:42:00,
2013-06-23 17:45:00,81.4,69.4,29.80,SSE,148,0.0,2.0,67,0.00,,FEW250,0.00,VWS V14.01,2013-06-23 22:45:00,
2013-06-23 17:47:00,81.2,69.6,29.80,SE,146,0.0,1.0,68,0.00,,BKN250,0.00,VWS V14.01,2013-06-23 22:47:00,
2013-06-23 17:50:00,81.1,69.6,29.80,South,184,0.0,1.0,68,0.00,,FEW250,0.00,VWS V14.01,2013-06-23 22:50:00,
2013-06-23 17:52:00,81.0,69.0,29.80,SE,132,0.0,1.0,67,0.00,,BKN250,0.00,VWS V14.01,2013-06-23 22:52:00,
2013-06-23 17:55:00,80.8,69.7,29.80,SE,132,0.0,1.0,69,0.00,,FEW250,0.00,VWS V14.01,2013-06-23 22:55:00,
2013-06-23 17:57:00,80.8,69.7,29.80,SE,132,0.0,0.0,69,0.00,,BKN250,0.00,VWS V14.01,2013-06-23 22:57:00,
2013-06-23 18:00:00,81.0,69.0,29.80,SE,132,0.0,1.0,67,0.00,,FEW250,0.00,VWS V14.01,2013-06-23 23:00:00,
2013-06-23 18:02:00,81.0,69.4,29.80,ESE,119,3.0,3.0,68,0.00,,BKN250,0.00,VWS V14.01,2013-06-23 23:02:00,
2013-06-23 18:05:00,80.5,68.5,29.80,ESE,120,0.0,8.0,67,0.00,,FEW250,0.00,VWS V14.01,2013-06-23 23:05:00,
2013-06-23 18:07:00,79.9,68.0,29.80,SSW,202,4.0,8.0,67,0.00,,BKN250,0.00,VWS V14.01,2013-06-23 23:07:00,
2013-06-23 18:10:00,80.3,69.2,29.80,SE,132,0.0,4.0,69,0.00,,FEW250,0.00,VWS V14.01,2013-06-23 23:10:00,
2013-06-23 18:12:00,80.2,68.7,29.80,SE,132,0.0,2.0,68,0.00,,BKN250,0.00,VWS V14.01,2013-06-23 23:12:00,
2013-06-23 18:15:00,80.1,69.0,29.80,ESE,121,1.0,2.0,69,0.00,,FEW250,0.00,VWS V14.01,2013-06-23 23:15:00,
2013-06-23 18:17:00,80.0,68.9,29.80,SSE,159,0.0,5.0,69,0.00,,BKN250,0.00,VWS V14.01,2013-06-23 23:17:00,
2013-06-23 18:20:00,80.1,69.4,29.80,SE,136,0.0,0.0,70,0.00,,FEW250,0.00,VWS V14.01,2013-06-23 23:20:00,
2013-06-23 18:22:00,80.6,70.3,29.81,SE,140,0.0,1.0,71,0.00,,BKN250,0.00,VWS V14.01,2013-06-23 23:22:00,
2013-06-23 18:25:00,81.3,71.0,29.81,SE,140,0.0,0.0,71,0.00,,FEW250,0.00,VWS V14.01,2013-06-23 23:25:00,
2013-06-23 18:27:00,82.3,71.5,29.81,North,360,3.0,6.0,70,0.00,,BKN250,0.00,VWS V14.01,2013-06-23 23:27:00,
2013-06-23 18:30:00,83.8,71.7,29.81,SSW,200,6.0,10.0,67,0.00,,CLR,0.00,VWS V14.01,2013-06-23 23:30:00,
2013-06-23 18:32:00,85.1,71.6,29.81,North,360,1.0,10.0,64,0.00,,BKN250,0.00,VWS V14.01,2013-06-23 23:32:00,
2013-06-23 18:35:00,85.8,71.8,29.82,South,182,0.0,7.0,63,0.00,,FEW250,0.00,VWS V14.01,2013-06-23 23:35:00,
2013-06-23 18:37:00,86.3,71.3,29.82,SW,227,0.0,13.0,61,0.00,,BKN250,0.00,VWS V14.01,2013-06-23 23:37:00,
2013-06-23 18:40:00,86.4,71.8,29.82,South,190,2.0,13.0,62,0.00,,FEW250,0.00,VWS V14.01,2013-06-23 23:40:00,
2013-06-23 18:42:00,86.5,71.9,29.82,SSW,193,0.0,13.0,62,0.00,,BKN250,0.00,VWS V14.01,2013-06-23 23:42:00,
2013-06-23 18:45:00,86.5,71.9,29.83,SSW,192,8.0,10.0,62,0.00,,FEW250,0.00,VWS V14.01,2013-06-23 23:45:00,
2013-06-23 18:47:00,86.3,72.2,29.83,SSW,210,9.0,12.0,63,0.00,,BKN250,0.00,VWS V14.01,2013-06-23 23:47:00,
2013-06-23 18:50:00,86.2,72.1,29.83,SSW,209,14.0,16.0,63,0.00,,FEW250,0.00,VWS V14.01,2013-06-23 23:50:00,
2013-06-23 18:52:00,86.0,72.4,29.83,SSW,210,8.0,16.0,64,0.00,,BKN250,0.00,VWS V14.01,2013-06-23 23:52:00,
2013-06-23 18:55:00,85.7,72.6,29.83,North,360,5.0,19.0,65,0.00,,FEW250,0.00,VWS V14.01,2013-06-23 23:55:00,
2013-06-23 18:58:00,85.4,72.8,29.83,SSW,208,10.0,20.0,66,0.00,,BKN250,0.00,VWS V14.01,2013-06-23 23:58:00,
2013-06-23 19:00:00,85.2,72.6,29.83,North,360,6.0,20.0,66,0.00,,FEW250,0.00,VWS V14.01,2013-06-24 00:00:00,
2013-06-23 19:03:00,84.9,72.3,29.83,SSW,202,7.0,22.0,66,0.00,,BKN250,0.00,VWS V14.01,2013-06-24 00:03:00,
2013-06-23 19:05:00,84.8,72.2,29.84,North,360,2.0,22.0,66,0.00,,FEW250,0.00,VWS V14.01,2013-06-24 00:05:00,
2013-06-23 19:08:00,84.6,72.0,29.84,North,360,17.0,19.0,66,0.00,,BKN250,0.00,VWS V14.01,2013-06-24 00:08:00,
2013-06-23 19:10:00,84.5,71.9,29.84,North,360,5.0,20.0,66,0.00,,FEW250,0.00,VWS V14.01,2013-06-24 00:10:00,
2013-06-23 19:13:00,84.3,72.2,29.84,North,360,18.0,18.0,67,0.00,,BKN250,0.00,VWS V14.01,2013-06-24 00:13:00,
2013-06-23 19:15:00,84.2,72.1,29.84,North,360,12.0,18.0,67,0.00,,FEW250,0.00,VWS V14.01,2013-06-24 00:15:00,
2013-06-23 19:18:00,83.9,70.0,29.84,SW,223,6.0,22.0,63,0.00,,BKN250,0.00,VWS V14.01,2013-06-24 00:18:00,
2013-06-23 19:20:00,83.9,70.4,29.84,North,360,15.0,22.0,64,0.00,,FEW250,0.00,VWS V14.01,2013-06-24 00:20:00,
2013-06-23 19:23:00,83.7,69.3,29.84,North,360,12.0,17.0,62,0.00,,BKN250,0.00,VWS V14.01,2013-06-24 00:23:00,
2013-06-23 19:25:00,83.5,69.6,29.84,SW,223,12.0,17.0,63,0.00,,FEW250,0.00,VWS V14.01,2013-06-24 00:25:00,
2013-06-23 19:28:00,83.2,69.3,29.84,WSW,257,7.0,18.0,63,0.00,,BKN250,0.00,VWS V14.01,2013-06-24 00:28:00,
2013-06-23 19:30:00,83.1,69.2,29.84,SSE,167,6.0,18.0,63,0.00,,FEW250,0.00,VWS V14.01,2013-06-24 00:30:00,
2013-06-23 19:33:00,82.8,68.9,29.84,North,360,6.0,12.0,63,0.00,,BKN250,0.00,VWS V14.01,2013-06-24 00:33:00,
2013-06-23 19:35:00,82.7,68.8,29.84,WSW,238,12.0,12.0,63,0.00,,FEW250,0.00,VWS V14.01,2013-06-24 00:35:00,
2013-06-23 19:38:00,82.5,68.6,29.84,SSE,167,8.0,13.0,63,0.00,,BKN250,0.00,VWS V14.01,2013-06-24 00:38:00,
2013-06-23 19:40:00,82.3,68.5,29.84,SW,217,0.0,13.0,63,0.00,,FEW250,0.00,VWS V14.01,2013-06-24 00:40:00,
2013-06-23 19:43:00,82.2,68.4,29.84,SSW,198,2.0,9.0,63,0.00,,BKN250,0.00,VWS V14.01,2013-06-24 00:43:00,
2013-06-23 19:45:00,82.1,67.8,29.84,North,360,11.0,13.0,62,0.00,,FEW250,0.00,VWS V14.01,2013-06-24 00:45:00,
2013-06-23 19:48:00,82.0,67.7,29.84,SW,226,7.0,12.0,62,0.00,,BKN250,0.00,VWS V14.01,2013-06-24 00:48:00,
2013-06-23 19:50:00,81.9,67.6,29.84,SSW,202,3.0,9.0,62,0.00,,FEW250,0.00,VWS V14.01,2013-06-24 00:50:00,
2013-06-23 19:53:00,81.8,67.5,29.83,SSW,213,1.0,9.0,62,0.00,,BKN250,0.00,VWS V14.01,2013-06-24 00:53:00,
2013-06-23 19:55:00,81.7,67.4,29.83,SSW,209,5.0,9.0,62,0.00,,FEW250,0.00,VWS V14.01,2013-06-24 00:55:00,
2013-06-23 19:58:00,81.6,67.8,29.84,North,360,6.0,8.0,63,0.00,,BKN250,0.00,VWS V14.01,2013-06-24 00:58:00,
2013-06-23 20:00:00,81.5,67.7,29.83,South,184,1.0,7.0,63,0.00,,FEW250,0.00,VWS V14.01,2013-06-24 01:00:00,
2013-06-23 20:03:00,81.3,67.5,29.83,South,169,6.0,10.0,63,0.00,,BKN250,0.00,VWS V14.01,2013-06-24 01:03:00,
2013-06-23 20:05:00,81.2,67.4,29.83,North,360,6.0,10.0,63,0.00,,FEW250,0.00,VWS V14.01,2013-06-24 01:05:00,
2013-06-23 20:08:00,81.1,67.8,29.83,SSW,195,10.0,13.0,64,0.00,,BKN250,0.00,VWS V14.01,2013-06-24 01:08:00,
2013-06-23 20:10:00,81.1,67.8,29.83,SW,217,6.0,13.0,64,0.00,,FEW250,0.00,VWS V14.01,2013-06-24 01:10:00,
2013-06-23 20:13:00,80.9,68.0,29.83,North,360,0.0,8.0,65,0.00,,BKN250,0.00,VWS V14.01,2013-06-24 01:13:00,
2013-06-23 20:15:00,80.9,68.0,29.83,North,360,7.0,8.0,65,0.00,,FEW250,0.00,VWS V14.01,2013-06-24 01:15:00,
2013-06-23 20:18:00,80.7,68.3,29.83,North,360,1.0,15.0,66,0.00,,BKN250,0.00,VWS V14.01,2013-06-24 01:18:00,
2013-06-23 20:20:00,80.7,68.3,29.83,North,360,5.0,13.0,66,0.00,,FEW250,0.00,VWS V14.01,2013-06-24 01:20:00,
2013-06-23 20:23:00,80.5,68.5,29.83,North,360,8.0,14.0,67,0.00,,BKN250,0.00,VWS V14.01,2013-06-24 01:23:00,
2013-06-23 20:25:00,80.5,69.0,29.83,SSW,211,9.0,14.0,68,0.00,,FEW250,0.00,VWS V14.01,2013-06-24 01:25:00,
2013-06-23 20:29:00,80.2,68.7,29.83,North,360,8.0,14.0,68,0.00,,BKN250,0.00,VWS V14.01,2013-06-24 01:29:00,
2013-06-23 20:30:00,80.2,69.1,29.83,SSW,207,8.0,14.0,69,0.00,,FEW250,0.00,VWS V14.01,2013-06-24 01:30:00,
2013-06-23 20:34:00,80.0,68.9,29.83,North,360,9.0,12.0,69,0.00,,BKN250,0.00,VWS V14.01,2013-06-24 01:34:00,
2013-06-23 20:35:00,80.0,68.9,29.83,North,360,7.0,14.0,69,0.00,,FEW250,0.00,VWS V14.01,2013-06-24 01:35:00,
2013-06-23 20:39:00,79.8,69.2,29.83,North,360,7.0,11.0,70,0.00,,BKN250,0.00,VWS V14.01,2013-06-24 01:39:00,
2013-06-23 20:40:00,79.8,69.2,29.83,North,360,0.0,11.0,70,0.00,,FEW250,0.00,VWS V14.01,2013-06-24 01:40:00,
2013-06-23 20:44:00,79.6,69.0,29.84,SSW,211,7.0,12.0,70,0.00,,BKN250,0.00,VWS V14.01,2013-06-24 01:44:00,
2013-06-23 20:45:00,79.6,69.4,29.84,SSW,207,0.0,12.0,71,0.00,,FEW250,0.00,VWS V14.01,2013-06-24 01:45:00,
2013-06-23 20:49:00,79.5,69.3,29.84,North,360,3.0,10.0,71,0.00,,BKN250,0.00,VWS V14.01,2013-06-24 01:49:00,
2013-06-23 20:50:00,79.5,69.3,29.84,SSW,196,1.0,10.0,71,0.00,,FEW250,0.00,VWS V14.01,2013-06-24 01:50:00,
2013-06-23 20:54:00,79.3,69.5,29.84,North,360,8.0,14.0,72,0.00,,BKN250,0.00,VWS V14.01,2013-06-24 01:54:00,
2013-06-23 20:55:00,79.3,69.5,29.84,North,360,5.0,14.0,72,0.00,,FEW250,0.00,VWS V14.01,2013-06-24 01:55:00,
2013-06-23 20:59:00,79.1,69.3,29.85,SW,234,7.0,9.0,72,0.00,,BKN250,0.00,VWS V14.01,2013-06-24 01:59:00,
2013-06-23 21:00:00,79.1,69.3,29.85,SSW,202,6.0,9.0,72,0.00,,FEW250,0.00,VWS V14.01,2013-06-24 02:00:00,
2013-06-23 21:04:00,78.9,69.5,29.85,SW,229,7.0,16.0,73,0.00,,BKN250,0.00,VWS V14.01,2013-06-24 02:04:00,
2013-06-23 21:05:00,78.9,69.5,29.85,SW,227,3.0,16.0,73,0.00,,FEW250,0.00,VWS V14.01,2013-06-24 02:05:00,
2013-06-23 21:09:00,78.7,68.9,29.84,North,360,14.0,15.0,72,0.00,,BKN250,0.00,VWS V14.01,2013-06-24 02:09:00,
2013-06-23 21:10:00,78.7,68.9,29.84,West,261,10.0,16.0,72,0.00,,FEW250,0.00,VWS V14.01,2013-06-24 02:10:00,
2013-06-23 21:14:00,78.6,68.8,29.84,North,360,3.0,15.0,72,0.00,,BKN250,0.00,VWS V14.01,2013-06-24 02:14:00,
2013-06-23 21:15:00,78.6,68.8,29.84,North,360,0.0,15.0,72,0.00,,FEW250,0.00,VWS V14.01,2013-06-24 02:15:00,
2013-06-23 21:19:00,78.4,68.2,29.84,North,360,8.0,14.0,71,0.00,,BKN250,0.00,VWS V14.01,2013-06-24 02:19:00,
2013-06-23 21:20:00,78.4,68.2,29.84,West,266,4.0,14.0,71,0.00,,FEW250,0.00,VWS V14.01,2013-06-24 02:20:00,
2013-06-23 21:24:00,78.1,67.5,29.85,North,360,1.0,15.0,70,0.00,,BKN250,0.00,VWS V14.01,2013-06-24 02:24:00,
2013-06-23 21:25:00,78.1,67.5,29.85,SW,219,3.0,15.0,70,0.00,,CLR,0.00,VWS V14.01,2013-06-24 02:25:00,
2013-06-23 21:29:00,77.9,67.3,29.85,SW,217,3.0,13.0,70,0.00,,BKN250,0.00,VWS V14.01,2013-06-24 02:29:00,
2013-06-23 21:30:00,77.9,67.3,29.85,SW,234,5.0,13.0,70,0.00,,FEW250,0.00,VWS V14.01,2013-06-24 02:30:00,
2013-06-23 21:34:00,77.7,67.1,29.85,North,360,2.0,13.0,70,0.00,,BKN250,0.00,VWS V14.01,2013-06-24 02:34:00,
2013-06-23 21:35:00,77.7,67.1,29.85,North,360,5.0,13.0,70,0.00,,FEW250,0.00,VWS V14.01,2013-06-24 02:35:00,
2013-06-23 21:39:00,77.5,66.9,29.85,North,360,6.0,11.0,70,0.00,,BKN250,0.00,VWS V14.01,2013-06-24 02:39:00,
2013-06-23 21:40:00,77.5,66.9,29.85,North,360,5.0,11.0,70,0.00,,FEW250,0.00,VWS V14.01,2013-06-24 02:40:00,
2013-06-23 21:44:00,77.2,67.1,29.85,SW,217,1.0,13.0,71,0.00,,BKN250,0.00,VWS V14.01,2013-06-24 02:44:00,
2013-06-23 21:45:00,77.2,67.1,29.85,SW,233,3.0,13.0,71,0.00,,FEW250,0.00,VWS V14.01,2013-06-24 02:45:00,
2013-06-23 21:49:00,77.0,66.9,29.85,SW,231,2.0,12.0,71,0.00,,BKN250,0.00,VWS V14.01,2013-06-24 02:49:00,
2013-06-23 21:50:00,77.0,66.9,29.85,SW,219,3.0,12.0,71,0.00,,FEW250,0.00,VWS V14.01,2013-06-24 02:50:00,
2013-06-23 21:54:00,76.8,66.7,29.85,SSW,207,3.0,12.0,71,0.00,,BKN250,0.00,VWS V14.01,2013-06-24 02:54:00,
2013-06-23 21:55:00,76.8,66.7,29.85,North,360,3.0,12.0,71,0.00,,FEW250,0.00,VWS V14.01,2013-06-24 02:55:00,
2013-06-23 21:59:00,76.6,66.9,29.86,WSW,242,5.0,13.0,72,0.00,,BKN250,0.00,VWS V14.01,2013-06-24 02:59:00,
2013-06-23 22:00:00,76.6,66.9,29.86,North,360,3.0,13.0,72,0.00,,FEW250,0.00,VWS V14.01,2013-06-24 03:00:00,
2013-06-23 22:05:00,76.5,66.8,29.86,SW,234,2.0,11.0,72,0.00,,BKN250,0.00,VWS V14.01,2013-06-24 03:05:00,
2013-06-23 22:10:00,76.4,66.7,29.86,North,360,7.0,13.0,72,0.00,,BKN250,0.00,VWS V14.01,2013-06-24 03:10:00,
2013-06-23 22:15:00,76.2,66.5,29.86,SSW,213,2.0,11.0,72,0.00,,BKN250,0.00,VWS V14.01,2013-06-24 03:15:00,
2013-06-23 22:20:00,76.1,66.8,29.86,North,360,2.0,11.0,73,0.00,,BKN250,0.00,VWS V14.01,2013-06-24 03:20:00,
2013-06-23 22:25:00,76.0,66.7,29.86,North,360,15.0,16.0,73,0.00,,BKN250,0.00,VWS V14.01,2013-06-24 03:25:00,
2013-06-23 22:30:00,76.0,66.7,29.86,SSW,205,2.0,14.0,73,0.00,,BKN250,0.00,VWS V14.01,2013-06-24 03:30:00,
2013-06-23 22:35:00,75.9,66.6,29.87,SSW,192,4.0,14.0,73,0.00,,BKN250,0.00,VWS V14.01,2013-06-24 03:35:00,
2013-06-23 22:40:00,75.8,66.5,29.87,North,360,7.0,14.0,73,0.00,,BKN250,0.00,VWS V14.01,2013-06-24 03:40:00,
2013-06-23 22:45:00,75.7,66.4,29.87,North,360,2.0,15.0,73,0.00,,BKN250,0.00,VWS V14.01,2013-06-24 03:45:00,
2013-06-23 22:50:00,75.6,66.7,29.87,WSW,238,7.0,14.0,74,0.00,,BKN250,0.00,VWS V14.01,2013-06-24 03:50:00,
2013-06-23 22:55:00,75.5,66.6,29.87,North,360,3.0,8.0,74,0.00,,BKN250,0.00,VWS V14.01,2013-06-24 03:55:00,
2013-06-23 23:00:00,75.5,66.6,29.87,WSW,237,6.0,10.0,74,0.00,,BKN250,0.00,VWS V14.01,2013-06-24 04:00:00,
2013-06-23 23:01:00,75.5,66.6,29.87,North,360,3.0,9.0,74,0.00,,BKN250,0.00,VWS V14.01,2013-06-24 04:01:00,
2013-06-23 23:02:00,75.4,66.5,29.87,SW,222,1.0,9.0,74,0.00,,BKN250,0.00,VWS V14.01,2013-06-24 04:02:00,
2013-06-23 23:03:00,75.4,66.5,29.87,North,360,2.0,9.0,74,0.00,,BKN250,0.00,VWS V14.01,2013-06-24 04:03:00,
2013-06-23 23:04:00,75.4,66.5,29.87,North,360,6.0,9.0,74,0.00,,BKN250,0.00,VWS V14.01,2013-06-24 04:04:00,
2013-06-23 23:05:00,75.4,66.5,29.87,North,360,6.0,9.0,74,0.00,,BKN250,0.00,VWS V14.01,2013-06-24 04:05:00,
2013-06-23 23:10:00,75.3,66.8,29.87,SSE,163,2.0,13.0,75,0.00,,BKN250,0.00,VWS V14.01,2013-06-24 04:10:00,
2013-06-23 23:15:00,75.2,66.7,29.87,SSW,194,2.0,12.0,75,0.00,,BKN250,0.00,VWS V14.01,2013-06-24 04:15:00,
2013-06-23 23:20:00,75.1,66.6,29.87,North,360,5.0,14.0,75,0.00,,BKN250,0.00,VWS V14.01,2013-06-24 04:20:00,
2013-06-23 23:25:00,75.0,66.9,29.87,North,360,2.0,10.0,76,0.00,,BKN250,0.00,VWS V14.01,2013-06-24 04:25:00,
2013-06-23 23:30:00,74.9,66.8,29.87,SSW,207,3.0,8.0,76,0.00,,BKN250,0.00,VWS V14.01,2013-06-24 04:30:00,
2013-06-23 23:35:00,74.7,67.0,29.87,South,175,4.0,9.0,77,0.00,,BKN250,0.00,VWS V14.01,2013-06-24 04:35:00,
2013-06-23 23:40:00,74.6,66.9,29.87,North,360,3.0,13.0,77,0.00,,BKN250,0.00,VWS V14.01,2013-06-24 04:40:00,
2013-06-23 23:45:00,74.5,66.8,29.87,North,360,5.0,13.0,77,0.00,,FEW250,0.00,VWS V14.01,2013-06-24 04:45:00,
2013-06-23 23:46:00,74.5,67.2,29.87,North,360,5.0,12.0,78,0.00,,BKN250,0.00,VWS V14.01,2013-06-24 04:46:00,
2013-06-23 23:50:00,74.4,67.1,29.87,North,360,3.0,9.0,78,0.00,,CLR,0.00,VWS V14.01,2013-06-24 04:50:00,
2013-06-23 23:51:00,74.3,67.0,29.87,North,360,2.0,9.0,78,0.00,,BKN250,0.00,VWS V14.01,2013-06-24 04:51:00,
2013-06-23 23:55:00,74.2,66.9,29.87,South,169,2.0,9.0,78,0.00,,FEW250,0.00,VWS V14.01,2013-06-24 04:55:00,
2013-06-23 23:56:00,74.2,66.9,29.87,SW,227,3.0,9.0,78,0.00,,BKN250,0.00,VWS V14.01,2013-06-24 04:56:00,